Showing default

OPS 0757 (TACSAT), 3691

Orbit data source: Space-Track

OPS 0757 (TACSAT), 3691 is a payload satellite owned by SAMSO (US) in GEO that was launched on Sun, 09 Feb 1969 UTC via a TITAN IIIC launch vehicle from the Air Force Eastern Test Range (AFETR). Payload-class satellites include a variety of spacecraft equipped with specific instruments for various scientific and technological missions. These include communications satellites like Starlink; space stations such as the ISS; scientific satellites like the Hubble; Earth observation satellites from companies like Planet Labs, Umbra, and HawkEye 360; GPS; miniature CubeSats for education and research; and military/defense satellites.

Loading next visibility...
Identifier
3691, 1969-013A
Orbit
GEO
Country
Flag of USUS
Related business
Manufacturer
Hughes
Mission
Non-operational spacecraft
Bus & Motor
HS-308, Unknown motor
Mass
721 kg wet, ~650 kg dry
Launch date (UTC)
1969-02-09 (57 years ago)
Launch vehicle
TITAN IIIC
Launch site
Air Force Eastern Test Range (AFETR)
Object type
Payload
Rocket body
Debris
Shape & HBR
Unknown
Radar Cross Section
Medium (>0.1 m² and <1 m²)

Expand to show TLE details & history
Last TLE update: 18 hours ago

TLE from 18 hours ago
0 OPS 0757 (TACSAT)
1 03691U 69013A   25309.72318641  .00000048  00000-0  00000-0 0  9991
2 03691   2.2802  75.8271 0023597 171.0291 289.7558  1.00440928111861
Epoch: 2025-11-05T17:21Z
TLE epoch observation values (Epoch: 2025-11-05T17:21:23.305Z)
Latitude
2.21936°
Longitude
-129.20967°
Altitude
35,704.694 km
Speed
3.079 km/s
True Right ascension
11h 45m 19s
True Declination
2° 13' 02"
Sunlit
Object was in daylight at epoch
Visualization orbit readout
Latitude
Unknown
Longitude
Unknown
Altitude
Unknown
Speed
Unknown
Apparent Right ascension
Unknown
Apparent Declination
Unknown
Sunlit
N/A
Visualization observer readout
Local Sidereal Time
07:02:07
Azimuth
Unknown
Elevation
Unknown
Doppler factor
Unknown
Orbital elements
Apogee altitude
35,839.701 km
Perigee altitude
35,640.927 km
Semi-major axis
42,118.451 km
Eccentricity
0.00236
Inclination
2.2802°
RAAN
75.8271°
Arg. of periapsis
171.0291°
True anomaly
289.50106°
Mean anomaly
289.7558°
Eccentric anomaly
289.62846°
Mean motion
0.25109 °/min
Orbital period
1,433.73 mins
BSTAR
0
Loading maneuver chart data...
Computing Atmospheric mass density...

Documentation

Showing up to 5 results
|